Regional Weather Roundup
Issued by NWS

Home | Current Version | Previous Version | Graphics & Text | Print | Product List | Glossary On
Versions: 1 2 3 4 5 6 7 8 9 10 11 12 13 14 15 16 17 18 19 20 21 22 23 24 25 26 27 28 29 30 31 32 33 34 35 36 37 38 39 40 41 42 43 44 45 46 47 48 49 50
131
ASUS43 KLSX 171807
RWRMO

WEATHER SUMMARY FOR MISSOURI
NATIONAL WEATHER SERVICE SPRINGFIELD MO
100 PM CDT THU AUG 17 2017

NOTE: "FAIR" INDICATES FEW OR NO CLOUDS BELOW 12,000 FEET WITH NO
       SIGNIFICANT WEATHER AND/OR OBSTRUCTIONS TO VISIBILITY.
       CURRENT SKY AND/OR WEATHER CONDITIONS ARE NOT AVAILABLE FOR
       CHILLICOTHE AND FARMINGTON.

MOZ001>031-035>038-043-044-053-054-171900-
...NORTHERN AND WESTERN MISSOURI...

CITY           SKY/WX    TMP DP  RH WIND       PRES   REMARKS
KANSAS CTY INT MOSUNNY   79  61  53 W10       29.98R
6HR MIN TEMP:  64; 6HR MAX TEMP:  79;

KANSAS C DTWN  SUNNY     79  64  60 W9        29.96R
6HR MIN TEMP:  68; 6HR MAX TEMP:  80;

LEE`S SUMMIT   SUNNY     79  63  57 W9        29.98R
6HR MIN TEMP:  66; 6HR MAX TEMP:  79;

ST JOSEPH      SUNNY     79  61  53 NW15      29.95S
6HR MIN TEMP:  63; 6HR MAX TEMP:  79;

CHILLICOTHE      N/A     80  62  54 VRB6G17   29.92S
6HR MIN TEMP:  67; 6HR MAX TEMP:  80;

KIRKSVILLE     CLOUDY    82  65  56 W13G20    29.89S
6HR MIN TEMP:  69; 6HR MAX TEMP:  82;


$$
MOZ066>068-077>081-088>096-101>105-171900-
...SOUTHWEST MISSOURI...

CITY           SKY/WX    TMP DP  RH WIND       PRES   REMARKS
SPRINGFIELD    PTSUNNY   80  71  74 MISG      30.00S
6HR MIN TEMP:  69; 6HR MAX TEMP:  80;

JOPLIN         CLOUDY    82  72  71 VRB5      30.01F
6HR MIN TEMP:  70; 6HR MAX TEMP:  82;

BRANSON        PTSUNNY   77  68  73 NW8       30.03S

$$
MOZ032>034-039>042-045>050-055>058-069>072-171900-
...CENTRAL MISSOURI...

CITY           SKY/WX    TMP DP  RH WIND       PRES   REMARKS
COLUMBIA       CLOUDY    79  68  69 W14       29.93F
6HR MIN TEMP:  68; 6HR MAX TEMP:  80;

JEFFERSON CITY CLOUDY    78  70  76 SW10      29.92F
6HR MIN TEMP:  70; 6HR MAX TEMP:  79;

ROLLA          PTSUNNY   78  70  76 W13       29.96F
6HR MIN TEMP:  66; 6HR MAX TEMP:  79;

SEDALIA        CLOUDY    80  70  71 VRB7      29.96F
6HR MIN TEMP:  70; 6HR MAX TEMP:  81;

WHITEMAN AFB   PTSUNNY   78  71  78 SW13      29.94F
WARRENSBURG    CLOUDY    77  64  65 W7        29.95F
OSAGE BEACH    MOSUNNY   78  68  71 W10       29.97F

$$
MOZ051-052-059>065-171900-
...EAST CENTRAL MISSOURI...

CITY           SKY/WX    TMP DP  RH WIND       PRES   REMARKS
ST LOUIS INTL  PTSUNNY   85  71  63 W14       29.89F HX  90
6HR MIN TEMP:  69; 6HR MAX TEMP:  85;

SPIRIT OF STL  PTSUNNY   84  72  67 W9        29.88F
6HR MIN TEMP:  69; 6HR MAX TEMP:  84;

ST CHARLES     MOSUNNY   83  70  64 W15       29.87F
6HR MIN TEMP:  68; 6HR MAX TEMP:  83;


$$
MOZ072>076-082>087-097>100-106>115-171900-
...SOUTH CENTRAL AND SOUTHEAST MISSOURI...

CITY           SKY/WX    TMP DP  RH WIND       PRES   REMARKS
CAPE GIRARDEAU PTSUNNY   79  71  76 SW7       29.92F
6HR MIN TEMP:  73; 6HR MAX TEMP:  79; 6HR PCP: TRACE;

FARMINGTON     MOSUNNY   82  73  74 VRB6      29.93F
6HR MIN TEMP:  67; 6HR MAX TEMP:  82;

POPLAR BLUFF   CLOUDY    79  73  82 SW8       29.93F
6HR MIN TEMP:  73; 6HR MAX TEMP:  79; 6HR PCP:  0.01;

WEST PLAINS    PTSUNNY   79  70  74 W12       29.99F
6HR MIN TEMP:  69; 6HR MAX TEMP:  79; 6HR PCP:  0.01;


$$



USA.gov is the U.S. government's official web portal to all federal, state and local government web resources and services.